CDT,Max TemperatureF,Mean TemperatureF,Min TemperatureF,Max Dew PointF,MeanDew PointF,Min DewpointF,Max Humidity, Mean Humidity, Min Humidity, Max Sea Level PressureIn, Mean Sea Level PressureIn, Min Sea Level PressureIn, Max VisibilityMiles, Mean VisibilityMiles, Min VisibilityMiles, Max Wind SpeedMPH, Mean Wind SpeedMPH, Max Gust SpeedMPH,PrecipitationIn, CloudCover, Events, WindDirDegrees
2012-10-1,66,52,39,47,36,28,77,50,24,30.03,29.98,29.88,10,10,10,20,12,26,0.00,0,,332
2012-10-2,70,50,32,33,28,25,82,47,20,29.99,29.87,29.77,10,10,10,22,6,31,0.00,0,,176
2012-10-3,72,54,35,42,36,27,73,52,26,29.93,29.87,29.83,10,8,1,22,6,25,0.00,1,Rain,26
2012-10-4,50,42,33,42,33,28,93,86,74,30.11,29.87,29.65,10,7,0,32,20,41,0.08,7,Fog-Rain-Snow,303
2012-10-5,39,34,30,29,28,26,88,78,70,30.22,30.12,30.03,10,9,2,28,20,38,0.00,8,Rain-Snow,307
2012-10-6,45,36,26,29,25,20,89,74,40,30.35,30.26,30.17,10,10,9,13,10,,0.00,5,,324
2012-10-7,53,40,26,24,21,18,81,55,26,30.19,29.99,29.79,10,10,10,17,8,24,0.00,1,,218
2012-10-8,48,42,36,43,33,21,93,74,49,29.78,29.64,29.50,10,10,7,22,6,31,0.09,6,Rain,220
2012-10-9,41,34,27,35,30,24,96,81,60,30.01,29.80,29.66,10,10,4,23,11,29,0.00,6,Rain,289
2012-10-10,46,32,21,33,28,19,96,79,47,30.06,29.98,29.90,10,8,2,15,6,,0.21,5,Rain-Snow,276
2012-10-11,42,32,23,32,27,19,96,79,42,30.43,30.15,29.90,10,10,8,17,6,28,0.00,4,,325
2012-10-12,48,34,19,24,17,14,92,54,25,30.44,30.25,29.92,10,10,10,25,6,29,0.00,2,,166
2012-10-13,64,53,41,43,33,16,93,54,29,29.90,29.75,29.66,10,10,9,13,8,,0.00,4,,173
2012-10-14,57,44,30,40,35,28,93,73,40,29.94,29.87,29.79,10,10,10,13,6,20,0.00,5,,341
2012-10-15,57,40,24,38,30,21,100,80,47,29.96,29.87,29.62,10,5,0,15,4,,0.00,2,Fog,194
2012-10-16,72,60,48,48,44,37,93,65,36,29.61,29.47,29.33,10,10,10,9,4,,0.01,2,Rain,182
2012-10-17,54,48,42,49,46,41,100,92,71,29.31,29.15,29.06,10,6,2,21,8,24,0.35,8,Rain,207
2012-10-18,50,46,42,48,44,39,100,93,87,29.45,29.25,29.16,10,6,2,17,8,25,0.35,8,Rain,329
2012-10-19,46,44,41,45,41,39,97,91,81,29.76,29.64,29.44,10,9,4,23,13,31,0.09,8,Rain,338
2012-10-20,50,45,42,43,41,40,96,88,77,29.78,29.74,29.71,10,10,5,12,5,,0.00,7,,176
2012-10-21,55,48,42,46,44,41,100,86,67,29.99,29.84,29.74,10,9,6,12,7,,0.00,5,,86
2012-10-22,55,48,42,45,41,37,93,80,60,30.09,30.02,29.92,10,10,10,15,9,23,0.00,5,,57
2012-10-23,53,48,46,51,46,42,100,95,83,29.89,29.76,29.67,10,3,1,12,9,,0.07,8,Rain,122
2012-10-24,52,44,35,52,41,34,100,90,76,29.98,29.89,29.75,10,9,2,14,9,21,0.05,8,Rain,321
2012-10-25,36,34,32,34,27,24,96,78,64,30.09,29.95,29.86,10,9,2,25,13,31,0.11,8,Rain-Snow,314
2012-10-26,35,31,28,25,20,16,75,63,50,30.32,30.26,30.11,10,10,9,22,16,30,0.00,8,Snow,277
2012-10-27,37,28,21,25,21,18,89,70,48,30.36,30.32,30.24,10,10,9,9,5,,0.00,6,Snow,280
2012-10-28,35,31,28,32,28,25,100,92,85,30.33,30.27,30.23,10,6,1,8,5,,0.06,8,Rain-Snow,72
2012-10-29,45,40,33,30,24,19,85,60,37,30.29,30.27,30.24,10,10,10,16,9,23,0.00,5,,129
2012-10-30,43,36,28,30,27,21,88,72,56,30.27,30.22,30.14,10,10,6,12,5,,0.00,3,,103
2012-10-31,51,36,21,34,27,19,92,73,40,30.13,30.04,29.94,10,10,6,14,1,21,0.00,5,,299